Погода в Бирзаи

Поиск расширенной информации на нашем сайте:

Полезная информация:

Новости сайта



02.01.2020
Опубликован Долгосрочный прогноз погоды по городам России и ближнего зарубежья на январь 2020 года.
Карты: Прогноз на январь и февраль 2020 года, Сравнение прогнозируемой аномалии приземной температуры воздуха на январь 2020 года по разным моделям.




Погода в Бирзаи - сегодня

Время (UTC), дата Ветер
(°,м/с) 
Видим.   Явления Облачность Т
(°С)
Тd
(°С)
f(%) Тe
(°С)
Pmin
(гПа)
dP
(гПа)
Po
(мм)
O2
(г/м3)
Тmin Tmax R s Состояние
почвы
03 04.08.20 080 (В) 1-2{03}  20000 м  слаб. дождь  10/0 средняя 
[As op]
+16.1 +14.3 89 +24  1008.9  -0.9  751  283           
06 04.08.20 120 (ЮВ) 3-5{05}  19000 м  {дождь}  10/0 средняя 
[Ac As]
+17.4 +14.7 84 +26  1008.6  -0.3  751  281  +16    0.2    влажная 
09 04.08.20 140 (ЮВ) 1-3{05}  20000 м    10/0 средняя 
[Ac As]
+20.2 +14.8 71 +28  1008.4  -0.1  751  279           
12 04.08.20 тихо () -2{04}  19000 м    10/0 средняя 
[Ac As]
+20.5 +15.2 72 +29  1008.9  0.5  751  278           
15 04.08.20 тихо () -2{03}  18000 м  слаб. дождь  10/0 средняя 
[As op]
+21 +16.4 75 +32  1009.3  0.4  752  278           
18 04.08.20 тихо () -0{04}  4400 м  слаб. дождь  10/10 210 м 
[Frnb|Ns]
+17.9 +16.8 93 +30  1010.5  1.1  752  281    +21.8     
21 04.08.20 тихо () -0{02}  2500 м  в посл. час дождь  10/10 800 м 
[Sc]
+17.4 +16.3 93 +28  1010.7  0.2  753  281           
00 05.08.20 290 (З) 2-4{04}  5000 м  дымка{ливн. осадки, дождь}  10/10 100 м 
[St]
+17 +16.1 94 +29  1012  1.3  754  282         
03 05.08.20 290 (З) 1-3{07}  12000 м  {морось}  10/10 150 м 
[St]
+16.1 +15.3 95 +26  1014  755  284           
06 05.08.20 290 (З) 2-4{05}  15000 м  {морось}  10/10 210 м 
[St]
+15.9 +14.8 93 +25  1016.3  2.2  757  285  +15.7      влажная 
09 05.08.20 290 (З) 3-5{05}  19000 м    8/8 600 м 
[Cu med, cong]
+18.8 +14.3 75 +26  1018  1.8  758  283           
12 05.08.20 230 (ЮЗ) 2-5{06}  20000 м    4/4 1000 м 
[Cu med, cong]
+21.2 +12.8 59 +26  1018.8  0.9  759  281           
15 05.08.20 290 (З) 1-3{06}  20000 м    4/1 1500 м верхняя 
[Cu med, cong|Ci sp]
+23.2 +9.8 43 +24  1019.1  0.3  759  280           
18 05.08.20 310 (СЗ) 2-4{08}  20000 м    8/0 средняя, верхняя 
[Ac trans|Ci sp]
+19 +10.8 59 +22  1020.7  1.5  760  284    +23.3       
21 05.08.20 тихо () -1{05}  20000 м    3/0 верхняя 
[Ci sp]
+13.9 +11 83 +16  1022.5  1.6  761  290           
00 06.08.20 тихо () -0{01}  18000 м    ясно 
+10.9 +9.4 90 +11  1023.5  762  294           
03 06.08.20 тихо () -0{02}  17000 м    4/0 средняя, верхняя 
[Ac lent|Ci fib]
+9.6 +8.8 95 +10  1024.7  1.1  763  295           
06 06.08.20 тихо () -2{02}  13000 м    6/0 верхняя 
[Ci sp]
+16.5 +13.1 80 +22  1026  1.5  764  288  +9.3        влажная 
09 06.08.20 270 (З) 2-4{05}  20000 м    3/0 верхняя 
[Ci sp]
+21.7 +10.8 50 +24  1026.5  0.6  764  283           
12 06.08.20 250 (З) 1-4{06}  20000 м    8/0 средняя 
[Ac trans]
+23.8 +10.7 44 +26  1026.2  -0.2  764  281           
15 06.08.20 180 (Ю) 1-3{05}  19000 м    1/0 верхняя 
[Ci fib]
+24.8 +11.6 44 +28  1025.7  -0.5  764  280           
18 06.08.20 тихо () -2{03}  13000 м    1/0 верхняя 
[Ci fib]
+21.5 +14.1 63 +28  1026  0.2  764  283    +25.4       
21 06.08.20 тихо () -2{02}  20000 м    ясно 
+16.6 +13.7 83 +23  1027.1  765  288           
00 07.08.20 тихо () -0{02}  19000 м    ясно 
+14.3 +12.8 91 +19  1027.9  0.7  765  291           
03 07.08.20 тихо () -0{01}  11000 м    1/0 средняя 
[Ac trans]
+12.9 +12 94 +16  1028.3  0.4  766  292           
Время (UTC), дата Ветер
(°,м/с) 
Видим.   Явления Облачность Т
(°С)
Тd
(°С)
f(%) Тe
(°С)
Pmin
(гПа)
dP
(гПа)
Po
(мм)
O2
(г/м3)
Тmin Tmax R s Состояние
почвы

Для получения пояснительной информации подведите курсор к названию столбца.

ПОГОДА в Бирзаи - архив

Всё, что Вы хотите узнать о погоде в Бирзаи - удобно и подробно!

Выберите нужную дату (начиная с 1 января 2019* года) и нажмите кнопку "Найти".
Будут отображены архивные сводки погоды по пункту Бирзаи, начиная с указанной даты.


Отображать данные в формате CSV (для использования в таблицах Excel)


Внимание! Наш архив погоды предназначен исключительно для личного некоммерческого использования в познавательных целях. Если Вам необходимы официальные справки о состоянии погоды (для производственных, юридических, коммерческих и т.п. целей), обращайтесь в органы Росгидромета.

*Примечание: данная дата относится к архиву по метеостанциям СССР (Россия, СНГ, Балтия).
Архив по метеостанциям Зарубежной Европы и Азии (кроме Китая) хранится 10 дней, по другим регионам земного шара (Китай, Африка, Америка, Австралия, Океания) - 1 день.

Бирзаи - район местоположения метеостанции


Название, широта, долгота, высота метеостанции:
Бирзаи 56.2°ш. 24.8°д. 62 м над ур. моря [Литва]

Дополнительная информация

В oтличие oт бoльшинства пoгoдных сайтoв мы публикуем пoдрoбную метеoинфoрмацию в детальнoм прoфессиoнальнoм фoрмате.

Характеристики температуры и влажнoсти вoздуха измеряются на высoте 2 м в тени вдали oт зданий и деревьев.
Скoрoсть ветра измеряется на высoте 10 м (на урoвне рoста челoвека скoрoсть ветра ниже в 1.5-2 раза). Если метеoстанция нахoдится в гoрoде или в лесу, тo скoрoсть ветра занижена на 2-4 м/с пo сравнению с oткрытым местoм. Скoрoсть ветра над акватoриями крупных рек и oзёр, а также на вершинах хoлмoв на 2-5 м/с выше, чем в oбычных услoвиях.
Атмoсфернoе давление в разных тoчках местнoсти мoжет значительнo oтличаться oт давления на метеoстанции, в зависимoсти oт услoвий рельефа (при пoдъёме на 10 м давление пoнижается примернo на 1 мм рт.ст.).